FW9981 Weather Reports


time (UTC)temp
F
wind
direction
speed
knots
gust
knots
rain 1hr
in
rain 24hr
in
rain mn
in
humidity
%
barometer
mb
20260506051104 53 27 0.9 0.9 0.00 0.00 0.00 88 1003.0
20260506050602 53 276 1.7 1.7 0.00 0.00 0.00 88 1003.0
20260506045052 53 353 0.9 1.7 0.00 0.00 0.00 87 1003.0
20260506044550 54 91 0.0 0.9 0.00 0.00 0.00 87 1002.9
20260506044046 54 349 0.9 1.7 0.00 0.00 0.00 87 1003.2
20260506043543 54 194 0.9 1.7 0.00 0.00 0.00 86 1002.9
20260506043042 54 48 0.9 1.7 0.00 0.00 0.00 86 1003.0
20260506042541 54 116 0.9 0.9 0.00 0.00 0.00 86 1002.8
20260506042038 54 220 0.9 0.9 0.00 0.00 0.00 86 1003.0
20260506041537 55 7 0.9 1.7 0.00 0.00 0.00 86 1003.1
20260506041033 55 40 0.9 0.9 0.00 0.00 0.00 85 1002.9
20260506040531 55 287 0.9 1.7 0.00 0.00 0.00 84 1002.6
20260506040027 55 85 0.9 0.9 0.00 0.00 0.00 84 1002.5
20260506035524 56 228 3.5 3.5 0.00 0.00 0.00 84 1002.5
20260506035021 56 267 1.7 2.6 0.00 0.00 0.00 84 1002.4
20260506034518 57 125 0.9 0.9 0.00 0.00 0.00 84 1002.4
20260506034015 57 265 1.7 1.7 0.00 0.00 0.00 83 1002.3
20260506033512 57 42 0.9 0.9 0.00 0.00 0.00 83 1002.3
20260506033009 57 267 1.7 1.7 0.00 0.00 0.00 83 1002.1
20260506032507 58 182 1.7 2.6 0.00 0.00 0.00 82 1002.4
20260506032003 58 325 0.9 0.9 0.00 0.00 0.00 82 1002.6
20260506031501 58 153 0.9 0.9 0.00 0.00 0.00 82 1002.3
20260506030958 59 34 0.9 0.9 0.00 0.00 0.00 81 1002.5
20260506030456 59 290 2.6 2.6 0.00 0.01 0.01 80 1002.5
20260506025952 59 110 0.0 0.9 0.00 0.01 0.01 81 1002.3
20260506025449 59 157 0.9 0.9 0.00 0.01 0.01 80 1002.4
20260506024946 60 286 0.9 1.7 0.00 0.01 0.01 80 1002.7
20260506024443 60 187 0.9 1.7 0.00 0.01 0.01 80 1002.7
20260506023938 60 303 1.7 2.6 0.00 0.01 0.01 79 1002.9
20260506023435 60 269 1.7 2.6 0.00 0.01 0.01 81 1002.8
20260506022932 60 23 0.9 0.9 0.00 0.01 0.01 81 1003.0
20260506022430 60 257 1.7 2.6 0.00 0.01 0.01 80 1002.7
20260506021928 60 22 0.9 0.9 0.00 0.01 0.01 80 1002.6
20260506021425 60 21 0.9 0.9 0.00 0.01 0.01 80 1002.6
20260506020922 60 52 0.0 0.9 0.00 0.01 0.01 80 1002.6
20260506020420 60 349 1.7 1.7 0.00 0.01 0.01 80 1002.9
20260506015916 60 22 0.9 0.9 0.00 0.01 0.01 80 1003.0
20260506015414 61 26 0.9 0.9 0.00 0.01 0.01 80 1002.8
20260506014911 60 289 0.9 1.7 0.00 0.01 0.01 80 1002.8
20260506014408 60 17 0.9 0.9 0.00 0.01 0.01 81 1002.9
20260506013904 60 56 0.0 0.0 0.00 0.01 0.01 81 1002.7
20260506013402 60 58 0.0 0.0 0.00 0.01 0.01 82 1002.8
20260506012858 60 76 0.0 0.0 0.00 0.01 0.01 83 1002.9
20260506012355 61 76 0.0 0.0 0.00 0.01 0.01 82 1003.1
20260506011852 61 99 0.0 0.9 0.00 0.01 0.01 81 1003.1
20260506011349 61 350 0.9 1.7 0.00 0.01 0.01 81 1003.0
20260506010846 61 235 2.6 3.5 0.00 0.01 0.01 82 1003.1
20260506010344 61 215 3.5 5.2 0.00 0.01 0.01 81 1002.6
20260506005841 62 287 2.6 2.6 0.00 0.01 0.01 82 1002.6
20260506005338 62 122 0.9 0.9 0.00 0.01 0.01 87 1002.5
20260506004833 61 35 0.9 0.9 0.00 0.01 0.01 87 1002.2
20260506004331 61 26 0.9 1.7 0.00 0.01 0.01 90 1001.9
20260506003827 60 99 0.9 0.9 0.00 0.01 0.01 95 1001.9
20260506003324 60 100 0.9 0.9 0.00 0.01 0.01 96 1001.7
20260506002820 60 99 0.0 0.9 0.00 0.01 0.01 96 1001.4
20260506002317 60 80 0.0 0.0 0.00 0.01 0.01 95 1001.4
20260506001812 61 80 0.0 0.0 0.00 0.01 0.01 95 1001.5
20260506001310 61 81 0.9 0.9 0.05 0.01 0.01 94 1001.3
20260506000806 61 51 0.0 0.0 0.05 0.01 0.01 93 1001.3
20260506000304 62 64 0.0 0.0 0.05 0.01 0.01 92 1000.8
20260505235801 62 104 0.0 0.0 0.00 0.00 0.00 90 1001.3
20260505235259 62 74 0.0 0.0 0.00 0.00 0.00 87 1001.3
20260505234755 62 92 0.9 0.9 0.00 0.00 0.00 85 1001.3
20260505234253 61 68 0.9 0.9 0.00 0.00 0.00 87 1001.7
20260505233749 61 67 0.9 0.9 0.00 0.00 0.00 88 1001.5
20260505233247 62 76 0.0 0.0 0.00 0.00 0.00 87 1001.6
20260505232744 62 111 1.7 1.7 0.00 0.00 0.00 87 1001.5
20260505232242 62 81 0.9 0.9 0.00 0.00 0.00 86 1001.8
20260505231738 62 33 0.0 0.9 0.00 0.00 0.00 85 1002.0
20260505231237 63 43 0.0 0.9 0.00 0.00 0.00 80 1001.8
20260505230735 65 36 0.9 0.9 0.00 0.00 0.00 76 1001.5
20260505230231 66 282 2.6 2.6 0.00 0.00 0.00 70 1001.7
20260505225728 67 295 5.2 7.0 0.00 0.00 0.00 63 1002.0
20260505225225 66 267 2.6 2.6 0.00 0.00 0.00 62 999.5
20260505224720 67 268 3.5 3.5 0.00 0.00 0.00 62 999.2
20260505224218 67 250 2.6 2.6 0.00 0.00 0.00 62 998.9
20260505223716 67 331 3.5 3.5 0.00 0.00 0.00 61 999.0
20260505223212 67 182 2.6 3.5 0.00 0.00 0.00 61 998.7
20260505222708 67 258 2.6 2.6 0.00 0.00 0.00 61 998.6
20260505222203 67 193 3.5 5.2 0.00 0.00 0.00 61 998.7
20260505221701 67 218 3.5 7.0 0.00 0.00 0.00 60 998.7
20260505221158 68 259 6.1 7.8 0.00 0.00 0.00 60 998.4
20260505220655 68 290 5.2 7.0 0.00 0.00 0.00 59 998.7
20260505220153 68 241 7.8 11.3 0.00 0.00 0.00 59 998.8
20260505215650 68 249 9.6 12.2 0.00 0.00 0.00 59 998.4
20260505215148 69 226 4.3 6.1 0.00 0.00 0.00 59 998.4
20260505214646 69 292 1.7 2.6 0.00 0.00 0.00 59 998.3
20260505214143 69 249 4.3 6.1 0.00 0.00 0.00 58 998.0
20260505213640 69 291 5.2 7.0 0.00 0.00 0.00 58 998.3
20260505213137 69 172 2.6 2.6 0.00 0.00 0.00 59 998.3
20260505212632 69 283 2.6 2.6 0.00 0.00 0.00 58 998.4
20260505212130 70 283 10.4 13.9 0.00 0.00 0.00 58 998.2
20260505211627 71 149 5.2 7.0 0.00 0.00 0.00 57 998.3
20260505211125 70 210 2.6 3.5 0.00 0.00 0.00 57 998.2
20260505210621 71 205 6.1 9.6 0.00 0.00 0.00 56 998.0
20260505210118 71 95 1.7 3.5 0.00 0.00 0.00 57 998.2
20260505205615 71 206 2.6 3.5 0.00 0.00 0.00 57 998.0
20260505205113 70 268 2.6 2.6 0.00 0.00 0.00 58 998.3
20260505204610 71 306 6.1 7.8 0.00 0.00 0.00 57 998.1
20260505204108 71 252 1.7 2.6 0.00 0.00 0.00 58 998.0
20260505203604 71 212 1.7 2.6 0.00 0.00 0.00 57 998.2
20260505203101 71 209 3.5 3.5 0.00 0.00 0.00 57 998.3
20260505202557 71 254 5.2 7.0 0.00 0.00 0.00 56 998.1
20260505202053 71 285 5.2 7.0 0.00 0.00 0.00 56 997.9
20260505201550 72 125 0.9 0.9 0.00 0.00 0.00 58 998.3
20260505201048 73 264 1.7 2.6 0.00 0.00 0.00 55 998.3
20260505200545 73 236 1.7 1.7 0.00 0.00 0.00 55 998.5
20260505200042 73 330 2.6 2.6 0.00 0.00 0.00 55 998.4
20260505195538 74 299 2.6 2.6 0.00 0.00 0.00 54 998.6
20260505195036 73 86 1.7 2.6 0.00 0.00 0.00 53 998.5
20260505194533 74 273 3.5 5.2 0.00 0.00 0.00 52 998.6
20260505194028 74 268 5.2 9.6 0.00 0.00 0.00 53 998.4
20260505193526 74 284 5.2 6.1 0.00 0.00 0.00 53 998.5
20260505193023 74 231 3.5 6.1 0.00 0.00 0.00 53 998.8
20260505192521 73 274 3.5 5.2 0.00 0.00 0.00 54 998.8
20260505192019 73 283 1.7 2.6 0.00 0.00 0.00 55 998.8
20260505191517 73 280 7.0 12.2 0.00 0.00 0.00 54 999.2
20260505191014 73 326 1.7 2.6 0.00 0.00 0.00 54 999.0
20260505190509 74 276 4.3 5.2 0.00 0.00 0.00 54 999.2
20260505190005 73 245 3.5 5.2 0.00 0.00 0.00 54 999.3
20260505185502 73 318 1.7 2.6 0.00 0.00 0.00 54 999.1
20260505184958 73 293 4.3 5.2 0.00 0.00 0.00 54 999.4
20260505184455 73 278 2.6 3.5 0.00 0.00 0.00 54 999.5
20260505183951 74 358 2.6 3.5 0.00 0.00 0.00 55 999.6
20260505183449 73 147 2.6 3.5 0.00 0.00 0.00 54 999.5
20260505182945 74 282 2.6 3.5 0.00 0.00 0.00 54 999.7
20260505182442 73 224 0.9 0.9 0.00 0.00 0.00 54 999.5
20260505181938 73 230 3.5 3.5 0.00 0.00 0.00 57 999.6
20260505181436 73 103 1.7 2.6 0.00 0.00 0.00 54 999.7
20260505180933 74 245 2.6 2.6 0.00 0.00 0.00 54 999.7
20260505180429 73 351 0.9 1.7 0.00 0.00 0.00 55 999.8
20260505175925 74 249 3.5 5.2 0.00 0.00 0.00 54 999.7
20260505175422 74 185 0.9 0.9 0.00 0.00 0.00 54 999.8
20260505174918 75 74 3.5 3.5 0.00 0.00 0.00 51 999.7
20260505174416 74 129 1.7 1.7 0.00 0.00 0.00 55 999.7
20260505173912 73 300 1.7 5.2 0.00 0.00 0.00 54 1000.0
20260505173408 73 238 5.2 7.0 0.00 0.00 0.00 54 999.9
20260505172905 74 134 2.6 6.1 0.00 0.00 0.00 56 999.8
20260505172403 74 13 3.5 5.2 0.00 0.00 0.00 52 999.9
20260505171903 75 85 1.7 2.6 0.00 0.00 0.00 53 1000.2
20260505171400 75 65 1.7 1.7 0.00 0.00 0.00 53 1000.3
20260505170856 74 251 2.6 3.5 0.00 0.00 0.00 52 1000.2
20260505170354 74 266 3.5 3.5 0.00 0.00 0.00 53 1000.3
20260505165848 74 232 4.3 6.1 0.00 0.00 0.00 54 1000.7
20260505165344 73 346 0.9 1.7 0.00 0.00 0.00 56 1000.5
20260505164840 72 283 0.9 1.7 0.00 0.00 0.00 57 1000.7
20260505164337 72 161 3.5 5.2 0.00 0.00 0.00 56 1000.9
20260505163836 72 221 4.3 8.7 0.00 0.00 0.00 56 1001.1
20260505163334 71 287 4.3 6.1 0.00 0.00 0.00 57 1001.1
20260505162832 71 203 3.5 5.2 0.00 0.00 0.00 58 1001.3
20260505162328 71 297 1.7 2.6 0.00 0.00 0.00 56 1001.3
20260505161825 69 145 1.7 2.6 0.00 0.00 0.00 58 1001.2
20260505161322 69 124 2.6 2.6 0.00 0.00 0.00 58 1001.4
20260505160819 69 52 0.9 0.9 0.00 0.00 0.00 60 1001.5
20260505160318 69 111 0.9 1.7 0.00 0.00 0.00 62 1001.6
20260505153256 66 214 3.5 3.5 0.00 0.00 0.00 64 1002.1
20260505152753 65 127 1.7 1.7 0.00 0.00 0.00 65 1002.2
20260505152249 67 260 4.3 5.2 0.00 0.00 0.00 62 1002.2
20260505151744 66 239 1.7 2.6 0.00 0.00 0.00 64 1002.4
20260505151242 65 137 1.7 1.7 0.00 0.00 0.00 65 1002.3
20260505150738 64 267 2.6 2.6 0.00 0.00 0.00 64 1002.3
20260505150236 64 214 1.7 2.6 0.00 0.00 0.00 64 1002.3
20260505140200 66 270 2.6 3.5 0.00 0.00 0.00 59 1001.9
20260505130124 61 293 3.5 3.5 0.00 0.00 0.00 66 1002.4
20260505124613 60 111 0.9 1.7 0.00 0.00 0.00 69 1002.3
20260505124109 59 161 0.9 1.7 0.00 0.00 0.00 70 1002.2
20260505123606 59 132 0.9 0.9 0.00 0.00 0.00 71 1002.4
20260505123103 58 241 1.7 2.6 0.00 0.00 0.00 72 1002.4
20260505122559 57 266 1.7 2.6 0.00 0.00 0.00 73 1002.6
20260505122056 57 260 1.7 2.6 0.00 0.00 0.00 75 1002.5
20260505121553 56 212 1.7 2.6 0.00 0.00 0.00 74 1002.7
20260505121050 56 227 2.6 2.6 0.00 0.00 0.00 77 1002.5
20260505120546 55 225 1.7 1.7 0.00 0.00 0.00 76 1002.5
20260505120042 55 253 2.6 3.5 0.00 0.00 0.00 78 1002.5
20260505115536 54 198 1.7 2.6 0.00 0.00 0.00 77 1002.6
20260505115034 54 146 0.9 0.9 0.00 0.00 0.00 79 1002.6
20260505114531 53 136 0.9 1.7 0.00 0.00 0.00 79 1002.8
20260505114027 53 264 1.7 2.6 0.00 0.00 0.00 80 1002.5
20260505113524 52 277 1.7 1.7 0.00 0.00 0.00 81 1002.7
20260505113020 51 124 0.9 0.9 0.00 0.00 0.00 82 1002.6
20260505112516 51 82 0.0 0.9 0.00 0.00 0.00 83 1002.5
20260505112014 51 355 0.9 1.7 0.00 0.00 0.00 83 1002.5
20260505111508 50 212 0.9 0.9 0.00 0.00 0.00 83 1002.6
20260505111005 50 241 1.7 1.7 0.00 0.00 0.00 83 1002.5
20260505110501 50 249 0.9 1.7 0.00 0.00 0.00 84 1003.0
20260505101932 48 12 0.9 0.9 0.00 0.00 0.00 87 1002.8
20260505101427 48 40 0.9 0.9 0.00 0.00 0.00 85 1002.8
20260505100923 47 219 0.9 1.7 0.00 0.00 0.00 88 1002.8
20260505100420 47 40 0.0 0.0 0.00 0.00 0.00 87 1002.7
20260505095915 48 15 0.9 0.9 0.00 0.00 0.00 85 1002.9
20260505095413 47 221 1.7 1.7 0.00 0.00 0.00 87 1002.6
20260505094909 47 26 0.0 0.9 0.00 0.00 0.00 88 1002.7
20260505094406 46 43 0.9 0.9 0.00 0.00 0.00 88 1002.5
20260505093901 47 229 0.9 1.7 0.00 0.00 0.00 87 1002.6
20260505093359 48 37 0.9 0.9 0.00 0.00 0.00 84 1002.6
20260505092856 48 9 0.9 0.9 0.00 0.00 0.00 85 1002.5
20260505092354 46 8 0.9 0.9 0.00 0.00 0.00 87 1002.7
20260505091851 47 25 0.9 0.9 0.00 0.00 0.00 86 1002.4
20260505091349 46 358 1.7 1.7 0.00 0.00 0.00 87 1002.6
20260505090847 46 23 0.0 0.9 0.00 0.00 0.00 88 1002.8
20260505090345 48 34 0.9 0.9 0.00 0.00 0.00 84 1002.7
20260505085841 50 22 0.9 1.7 0.00 0.00 0.00 80 1002.7
20260505085340 47 264 2.6 2.6 0.00 0.00 0.00 84 1002.7
20260505084837 47 88 0.0 0.9 0.00 0.00 0.00 85 1002.7
20260505084335 47 31 0.9 0.9 0.00 0.00 0.00 86 1002.6
20260505083832 47 311 0.9 1.7 0.00 0.00 0.00 85 1002.9
20260505083330 46 257 2.6 2.6 0.00 0.00 0.00 87 1002.8
20260505082826 46 256 2.6 2.6 0.00 0.00 0.00 88 1003.0
20260505082322 45 18 0.9 0.9 0.00 0.00 0.00 89 1002.9
20260505081819 45 40 0.9 0.9 0.00 0.00 0.00 89 1002.8
20260505081316 43 26 0.0 0.9 0.00 0.00 0.00 92 1003.0
20260505080813 44 350 1.7 1.7 0.00 0.00 0.00 90 1002.8
20260505080308 44 11 0.9 1.7 0.00 0.00 0.00 91 1002.8
20260505075804 45 135 0.9 0.9 0.00 0.00 0.00 88 1003.0
20260505075304 46 45 1.7 1.7 0.00 0.00 0.00 87 1002.8
20260505074758 45 16 0.9 0.9 0.00 0.00 0.00 89 1002.8
20260505074256 44 32 0.0 0.9 0.00 0.00 0.00 92 1002.9
20260505073753 44 355 0.9 0.9 0.00 0.00 0.00 92 1002.9
20260505073251 44 356 0.9 1.7 0.00 0.00 0.00 92 1002.7
20260505072747 44 357 0.9 1.7 0.00 0.00 0.00 91 1002.8
20260505072243 47 324 1.7 1.7 0.00 0.00 0.00 86 1003.0
20260505071739 48 11 0.9 0.9 0.00 0.00 0.00 83 1002.8
20260505071236 46 234 1.7 1.7 0.00 0.00 0.00 86 1002.8
20260505070734 46 345 0.0 0.9 0.00 0.00 0.00 86 1003.0
20260505070230 45 29 0.9 0.9 0.00 0.00 0.00 88 1002.9
20260505065726 49 53 0.9 0.9 0.00 0.00 0.00 82 1002.9
20260505065223 48 248 0.0 0.9 0.00 0.00 0.00 84 1003.0
20260505064720 49 15 0.9 0.9 0.00 0.00 0.00 81 1003.0
20260505064218 48 237 1.7 2.6 0.00 0.00 0.00 82 1003.0
20260505063715 47 43 0.0 0.0 0.00 0.00 0.00 86 1002.7
20260505063211 46 17 0.9 0.9 0.00 0.00 0.00 87 1002.7
20260505062707 46 344 1.7 1.7 0.00 0.00 0.00 88 1003.0
20260505062205 44 353 0.9 0.9 0.00 0.00 0.00 92 1002.6
20260505061701 45 317 1.7 1.7 0.00 0.00 0.00 90 1002.8
20260505061200 44 357 0.9 0.9 0.00 0.00 0.00 91 1002.9
20260505060657 44 352 1.7 1.7 0.00 0.00 0.00 91 1002.6
20260505060154 44 8 0.9 0.9 0.00 0.00 0.00 91 1002.9
20260505055649 45 355 0.9 0.9 0.00 0.00 0.00 90 1003.0